Tracking 30306 objects as of 23-Apr-2025
HD Live streaming from Space Station
objects crossing your sky now

COSMOS 1037

Track COSMOS 1037 now!
10-day predictions
COSMOS 1037 is classified as:


NORAD ID: 11046
Int'l Code: 1978-091D
Perigee: 1,468.1 km
Apogee: 1,488.5 km
Inclination: 74.0 °
Period: 115.3 minutes
Semi major axis: 7849 km
RCS: 0.7202 m2 (medium)
Launch date: October 4, 1978
Source: Commonwealth of Independent States (former USSR) (CIS)
Launch site: PLESETSK MISSILE AND SPACE COMPLEX (PKMTR)
Your satellite tracking list
Your tracking list is empty




NASA's NSSDC Master Catalog

Two Line Element Set (TLE):
1 11046U 78091D   25112.78325677 -.00000003  00000-0  83345-4 0  9994
2 11046  74.0349 243.8794 0013018 204.6067 307.3663 12.48403317121427
Source of the keplerian elements: AFSPC